Glendive, MT

2:10 PM MDT on April 27, 2017 (GMT -0600)
Dawson Community

Weather History for KGDV - November, 2010

Change the Weather History Date:

Tuesday, November 2, 2010

  Actual Average Record
Temperature  
Mean Temperature 54 °F -  
Max Temperature 66 °F 44 °F 71 °F (2008)
Min Temperature 41 °F 24 °F 6 °F (2006)
Degree Days  
Heating Degree Days 12    
Growing Degree Days 4 (Base 50)    
Moisture  
Dew Point 34 °F    
Average Humidity 52    
Maximum Humidity 76    
Minimum Humidity 30    
Precipitation  
Precipitation 0.00 in - - ()
Sea Level Pressure  
Sea Level Pressure 30.19 in    
Wind  
Wind Speed 10 mph (SW)    
Max Wind Speed 26 mph    
Max Gust Speed 37 mph    
Visibility 10 miles    
Events      
Averages and records for this station are not official NWS values.
T = Trace of Precipitation, MM = Missing Value Source: NWS Daily Summary

Daily Weather History Graph

Daily Weather History Graph

Search for Another Location

Airport or City:

Trip Planner

Search our weather history database for the weather conditions in past years. The results will help you decide how hot, cold, wet, or windy it might be!

Date:

Astronomy

Nov. 02, 2010 Rise Set
Actual Time 7:43 AM MDT 5:41 PM MDT
Civil Twilight 7:11 AM MDT 6:13 PM MDT
Nautical Twilight 6:35 AM MDT 6:49 PM MDT
Astronomical Twilight 6:00 AM MDT 7:24 PM MDT
Moon 3:19 AM MDT (11/2) 3:32 PM MDT (11/2)
Length of Visible Light 11h 01m
Length of Day
9h 57m
Waning Crescent, 16% of the Moon is Illuminated
Nov 2
Waning Crescent
Nov 5
New
Nov 13
First Quarter
Nov 21
Full
Nov 28
Last Quarter

Hourly Weather History & Observations

Time (MDT) Temp. Windchill Dew Point Humidity Pressure Visibility Wind Dir Wind Speed Gust Speed Precip Events Conditions
12:15 AM 44.6 °F 42.2 °F 30.2 °F 57% 30.16 in 10.0 mi SSW 4.6 mph - N/A   Clear
12:35 AM 44.6 °F 43.1 °F 30.2 °F 57% 30.15 in 10.0 mi South 3.5 mph - N/A   Clear
12:55 AM 44.6 °F 40.2 °F 30.2 °F 57% 30.16 in 10.0 mi SSW 8.1 mph - N/A   Clear
1:15 AM 42.8 °F 38.6 °F 30.2 °F 61% 30.16 in 10.0 mi South 6.9 mph - N/A   Clear
1:35 AM 42.8 °F 39.3 °F 30.2 °F 61% 30.15 in 10.0 mi SSW 5.8 mph - N/A   Clear
1:55 AM 44.6 °F 42.2 °F 30.2 °F 57% 30.15 in 10.0 mi South 4.6 mph - N/A   Clear
2:15 AM 46.4 °F 42.9 °F 30.2 °F 53% 30.16 in 10.0 mi SW 6.9 mph - N/A   Clear
2:35 AM 46.4 °F 42.9 °F 32.0 °F 57% 30.16 in 10.0 mi SSW 6.9 mph - N/A   Clear
2:55 AM 46.4 °F 42.4 °F 30.2 °F 53% 30.16 in 10.0 mi SSW 8.1 mph - N/A   Clear
3:15 AM 46.4 °F 42.9 °F 32.0 °F 57% 30.15 in 10.0 mi South 6.9 mph - N/A   Clear
3:35 AM 42.8 °F 38.0 °F 30.2 °F 61% 30.15 in 10.0 mi South 8.1 mph - N/A   Clear
3:55 AM 42.8 °F 37.5 °F 30.2 °F 61% 30.16 in 10.0 mi SSW 9.2 mph - N/A   Partly Cloudy
4:15 AM 44.6 °F 40.7 °F 33.8 °F 66% 30.15 in 10.0 mi South 6.9 mph - N/A   Partly Cloudy
4:35 AM 42.8 °F 39.3 °F 32.0 °F 66% 30.15 in 10.0 mi SSE 5.8 mph - N/A   Clear
4:55 AM 42.8 °F 38.0 °F 32.0 °F 66% 30.16 in 10.0 mi South 8.1 mph - N/A   Clear
5:15 AM 42.8 °F 39.3 °F 32.0 °F 66% 30.15 in 10.0 mi SSE 5.8 mph - N/A   Clear
5:35 AM 42.8 °F 39.3 °F 32.0 °F 66% 30.16 in 10.0 mi South 5.8 mph - N/A   Scattered Clouds
5:55 AM 41.0 °F - 33.8 °F 76% 30.16 in 10.0 mi Calm Calm - N/A   Scattered Clouds
6:15 AM 41.0 °F 38.0 °F 33.8 °F 76% 30.17 in 10.0 mi SSE 4.6 mph - N/A   Clear
6:35 AM 42.8 °F 39.3 °F 33.8 °F 70% 30.17 in 10.0 mi South 5.8 mph - N/A   Clear
6:55 AM 41.0 °F 37.1 °F 33.8 °F 76% 30.17 in 10.0 mi South 5.8 mph - N/A   Clear
7:15 AM 41.0 °F 39.0 °F 32.0 °F 70% 30.17 in 10.0 mi SSE 3.5 mph - N/A   Partly Cloudy
7:35 AM 42.8 °F 39.3 °F 33.8 °F 70% 30.17 in 10.0 mi SSE 5.8 mph - N/A   Clear
7:55 AM 42.8 °F 38.6 °F 33.8 °F 70% 30.18 in 10.0 mi SSE 6.9 mph - N/A   Clear
8:15 AM 41.0 °F 37.1 °F 32.0 °F 70% 30.19 in 10.0 mi South 5.8 mph - N/A   Partly Cloudy
8:35 AM 42.8 °F 38.6 °F 33.8 °F 70% 30.19 in 10.0 mi SSW 6.9 mph - N/A   Clear
8:55 AM 46.4 °F 43.5 °F 35.6 °F 66% 30.19 in 10.0 mi South 5.8 mph - N/A   Clear
9:15 AM 48.2 °F - 35.6 °F 62% 30.20 in 10.0 mi ESE 5.8 mph - N/A   Partly Cloudy
9:35 AM 50.0 °F - 37.4 °F 62% 30.21 in 10.0 mi South 6.9 mph - N/A   Clear
9:55 AM 53.6 °F - 37.4 °F 54% 30.20 in 10.0 mi South 6.9 mph - N/A   Clear
10:15 AM 59.0 °F - 37.4 °F 45% 30.20 in 10.0 mi West 12.7 mph - N/A   Clear
10:35 AM 62.6 °F - 39.2 °F 42% 30.20 in 10.0 mi West 17.3 mph - N/A   Clear
10:55 AM 62.6 °F - 39.2 °F 42% 30.21 in 10.0 mi WNW 19.6 mph 24.2 mph N/A   Clear
11:15 AM 64.4 °F - 39.2 °F 40% 30.20 in 10.0 mi WNW 25.3 mph 28.8 mph N/A   Clear
11:35 AM 66.2 °F - 37.4 °F 35% 30.21 in 10.0 mi WNW 23.0 mph 32.2 mph N/A   Clear
11:55 AM 66.2 °F - 37.4 °F 35% 30.21 in 10.0 mi WNW 23.0 mph 32.2 mph N/A   Clear
12:15 PM 66.2 °F - 37.4 °F 35% 30.20 in 10.0 mi NW 26.5 mph 36.8 mph N/A   Clear
12:35 PM 66.2 °F - 37.4 °F 35% 30.20 in 10.0 mi NW 24.2 mph 29.9 mph N/A   Scattered Clouds
12:55 PM 66.2 °F - 37.4 °F 35% 30.21 in 10.0 mi NW 24.2 mph 31.1 mph N/A   Partly Cloudy
1:15 PM 66.2 °F - 37.4 °F 35% 30.20 in 10.0 mi NW 26.5 mph 32.2 mph N/A   Clear
1:35 PM 66.2 °F - 37.4 °F 35% 30.20 in 10.0 mi NW 25.3 mph 28.8 mph N/A   Clear
1:55 PM 66.2 °F - 37.4 °F 35% 30.20 in 10.0 mi NW 26.5 mph 33.4 mph N/A   Clear
2:15 PM 66.2 °F - 33.8 °F 30% 30.20 in 10.0 mi NW 26.5 mph 34.5 mph N/A   Clear
2:35 PM 64.4 °F - 33.8 °F 32% 30.20 in 10.0 mi WNW 24.2 mph 29.9 mph N/A   Clear
2:55 PM 62.6 °F - 35.6 °F 37% 30.21 in 10.0 mi NW 20.7 mph 28.8 mph N/A   Partly Cloudy
3:15 PM 64.4 °F - 35.6 °F 34% 30.21 in 10.0 mi WNW 20.7 mph 28.8 mph N/A   Partly Cloudy
3:35 PM 64.4 °F - 35.6 °F 34% 30.21 in 10.0 mi WNW 24.2 mph 32.2 mph N/A   Clear
3:55 PM 62.6 °F - 35.6 °F 37% 30.22 in 10.0 mi WNW 20.7 mph 27.6 mph N/A   Clear
4:15 PM 62.6 °F - 33.8 °F 34% 30.23 in 10.0 mi WNW 12.7 mph 18.4 mph N/A   Clear
4:35 PM 60.8 °F - 33.8 °F 36% 30.23 in 10.0 mi WNW 16.1 mph 23.0 mph N/A   Partly Cloudy
4:55 PM 59.0 °F - 33.8 °F 39% 30.23 in 10.0 mi West 15.0 mph - N/A   Clear
5:15 PM 57.2 °F - 33.8 °F 41% 30.24 in 10.0 mi WNW 12.7 mph - N/A   Clear
5:35 PM 55.4 °F - 33.8 °F 44% 30.25 in 10.0 mi WNW 12.7 mph - N/A   Clear
5:55 PM 53.6 °F - 32.0 °F 44% 30.25 in 10.0 mi WNW 11.5 mph - N/A   Clear
6:15 PM 51.8 °F - 32.0 °F 47% 30.26 in 10.0 mi WNW 11.5 mph - N/A   Clear
6:35 PM 53.6 °F - 32.0 °F 44% 30.26 in 10.0 mi WNW 11.5 mph - N/A   Clear
6:55 PM 50.0 °F - 32.0 °F 50% 30.27 in 10.0 mi WNW 9.2 mph - N/A   Clear
7:15 PM 46.4 °F 41.9 °F 30.2 °F 53% 30.28 in 10.0 mi WNW 9.2 mph - N/A   Clear
7:35 PM 46.4 °F 41.5 °F 32.0 °F 57% 30.28 in 10.0 mi WNW 10.4 mph - N/A   Clear
7:55 PM 44.6 °F 39.7 °F 30.2 °F 57% 30.29 in 10.0 mi NW 9.2 mph - N/A   Clear
8:15 PM 42.8 °F 37.5 °F 30.2 °F 61% 30.30 in 10.0 mi WNW 9.2 mph - N/A   Clear
8:35 PM 41.0 °F 35.8 °F 30.2 °F 65% 30.30 in 10.0 mi WNW 8.1 mph - N/A   Clear
8:55 PM 42.8 °F 36.2 °F 32.0 °F 66% 30.31 in 10.0 mi NNW 12.7 mph - N/A   Clear
9:15 PM 42.8 °F 36.6 °F 32.0 °F 66% 30.32 in 10.0 mi NW 11.5 mph - N/A   Clear
9:35 PM 44.6 °F 38.1 °F 32.0 °F 61% 30.33 in 10.0 mi NW 13.8 mph - N/A   Clear
9:55 PM 44.6 °F 38.4 °F 32.0 °F 61% 30.34 in 10.0 mi NW 12.7 mph - N/A   Clear
10:15 PM 44.6 °F 38.8 °F 32.0 °F 61% 30.35 in 10.0 mi NW 11.5 mph - N/A   Clear
10:35 PM 44.6 °F 38.8 °F 32.0 °F 61% 30.35 in 10.0 mi NW 11.5 mph - N/A   Clear
10:55 PM 44.6 °F 39.2 °F 32.0 °F 61% 30.36 in 10.0 mi NW 10.4 mph - N/A   Clear
11:15 PM 42.8 °F 36.6 °F 32.0 °F 66% 30.37 in 10.0 mi NW 11.5 mph - N/A   Clear
11:35 PM 42.8 °F 36.6 °F 30.2 °F 61% 30.37 in 10.0 mi NW 11.5 mph - N/A   Clear
11:55 PM 39.2 °F 33.0 °F 30.2 °F 70% 30.37 in 10.0 mi WNW 9.2 mph - N/A   Clear